Overview Statistics Trail Chart Weather Telemetry Raw packets
 

This is the latest recevied weather packets stored in our database for station/object 9M4GEK-3. If no packets are shown the sender has not sent any weather packets the latest 10 day(s).

<< 8 9 10 11 12 13 14 >>
Time Temp. Humidity Pressure Rain* Wind** Luminosity Snow
1788443248 29.44° C 63% 1010.4 hPa - - - -
1788443021 34.44° C 51% 1008.3 hPa - - - -
1788442348 29.44° C 63% 1010.3 hPa - - - -
1788441448 29.44° C 62% 1010.1 hPa - - - -
1788440751 35° C 50% 1008.3 hPa - - - -
1788440548 29.44° C 62% 1010 hPa - - - -
1788439684 35.56° C 49% 1008.2 hPa - - - -
1788439648 29.44° C 62% 1009.7 hPa - - - -
1788438748 30° C 61% 1009.5 hPa - - - -
1788437848 30° C 60% 1009.2 hPa - - - -
1788436965 34.44° C 50% 1008.6 hPa - - - -
1788436948 30° C 60% 1008.9 hPa - - - -
1788436048 30° C 59% 1008.6 hPa - - - -
1788435510 32.22° C 54% 1008.8 hPa - - - -
1788435148 30.56° C 59% 1008.4 hPa - - - -
1788434248 30.56° C 58% 1008.2 hPa - - - -
1788433876 31.11° C 55% 1009.1 hPa - - - -
1788433348 31.11° C 57% 1008.1 hPa - - - -
1788432447 31.67° C 55% 1007.9 hPa - - - -
1788431547 32.22° C 55% 1007.9 hPa - - - -
1788430647 33.33° C 52% 1007.7 hPa - - - -
1788429790 35° C 45% 1009.1 hPa - - - -
1788429747 35° C 48% 1007.7 hPa - - - -
1788428847 35.56° C 48% 1007.7 hPa - - - -
1788427947 35° C 48% 1007.6 hPa - - - -

* Rain since midnight (hover to see other rain measurements)
** Current wind speed in m/s (hover to see current wind gust speed)